(488) Kreusa
ephemeris date magn radius delta ra dec elong phase
Today19 Sep 202513.82.939 AU3.594 AU14h31m-09°45'42.9°13.4°
Opposition3 Jul 202612.63.366 AU2.353 AU18h52m-28°10'174.7°1.6°
(488) Kreusa - 2025-09-19
astro.vanbuitenen.nl


 
-1 year
-1 month
-1 day
Now
+1 day
+1 month
+1 year

The interactive orbit chart above shows the body's path through the solar system and its position at the given date. Green and blue lines are shown perpendicular to the ecliptic plane: Green if the path is above the ecliptic plane, blue if it is below. (Left-click and drag to rotate the view; Right-click and drag to move the view; Use scroll wheel to zoom in our out.)

The orbital elements of Kreusa are:

            e (Eccentricity)                : 0.1583151
            a (Semimajor axis)              : 3.1666778
            i (Inclination)                 : 11.47623
            Ω (Longitude of ascending node) : 82.98127
            ω (Argument of perihelion)      : 77.22942
            M (Mean anomaly)                : 30.88748
            Epoch                           : 2025 May 05

            L (Longitude of perihelion)     : 159.95896
            B (Latitude of perihelion)      : 11.18863
            P (Orbital period in years)     : 5.64            
        

The light curve chart below shows the estimated development of the minor planet's magnitude.


The all-sky chart below shows the path of the minor planet over the same period as the light curve. The current position is marked yellow.





The following chart shows the path of the minor planet in the next few days. The field of view is optimized for (~10x50) binoculars and finderscopes. A more printer-friendly version of the same chart can be found below.




Ephemerides:
Date       Time       RA (2000)    DEC (2000)    delta   radius  elong  phase   PA    magn
2025-09-19 00:00 UT   14 31 12.5   -09 45 21     3.594    2.939   42.9   13.4   103   13.8 
2025-09-19 05:19 UT   14 31 30.6   -09 47 23     3.597    2.939   42.7   13.4   103   13.8 
2025-09-20 00:00 UT   14 32 34.4   -09 54 32     3.605    2.940   42.3   13.3   103   13.8 
2025-09-21 00:00 UT   14 33 56.7   -10 03 42     3.615    2.941   41.6   13.1   103   13.8 
2025-09-22 00:00 UT   14 35 19.2   -10 12 49     3.625    2.943   41.0   12.9   103   13.8 
2025-09-23 00:00 UT   14 36 42.1   -10 21 54     3.635    2.944   40.4   12.8   102   13.8 
2025-09-24 00:00 UT   14 38 05.3   -10 30 58     3.645    2.946   39.8   12.6   102   13.8 
2025-09-25 00:00 UT   14 39 28.8   -10 39 59     3.655    2.947   39.2   12.4   102   13.8 
2025-09-26 00:00 UT   14 40 52.6   -10 48 58     3.665    2.949   38.6   12.3   102   13.8 
2025-09-27 00:00 UT   14 42 16.6   -10 57 54     3.675    2.950   38.0   12.1   102   13.8 
2025-09-28 00:00 UT   14 43 41.0   -11 06 49     3.684    2.952   37.4   11.9   102   13.8 
2025-09-29 00:00 UT   14 45 05.7   -11 15 41     3.694    2.953   36.8   11.7   101   13.8 
2025-09-30 00:00 UT   14 46 30.6   -11 24 31     3.703    2.955   36.2   11.5   101   13.8 
2025-10-01 00:00 UT   14 47 55.9   -11 33 18     3.712    2.956   35.6   11.4   101   13.8 
2025-10-02 00:00 UT   14 49 21.4   -11 42 03     3.722    2.958   35.0   11.2   101   13.8 
2025-10-03 00:00 UT   14 50 47.2   -11 50 45     3.731    2.959   34.4   11.0   101   13.8 
2025-10-04 00:00 UT   14 52 13.2   -11 59 25     3.739    2.961   33.8   10.8   100   13.8 
2025-10-05 00:00 UT   14 53 39.5   -12 08 03     3.748    2.962   33.2   10.6   100   13.8 
2025-10-06 00:00 UT   14 55 06.1   -12 16 37     3.757    2.964   32.6   10.5   100   13.8 
2025-10-07 00:00 UT   14 56 32.9   -12 25 10     3.765    2.965   32.0   10.3   100   13.8 
2025-10-08 00:00 UT   14 57 60.0   -12 33 39     3.774    2.967   31.4   10.1   100   13.8 
2025-10-09 00:00 UT   14 59 27.3   -12 42 06     3.782    2.968   30.8    9.9    99   13.8 
2025-10-10 00:00 UT   15 00 54.9   -12 50 30     3.790    2.970   30.2    9.7    99   13.8 
2025-10-11 00:00 UT   15 02 22.7   -12 58 52     3.799    2.971   29.6    9.5    99   13.8 


    Terminology:
            
    delta:  distance between minor planet and earth in AU
    radius: distance between minor planet and sun in AU
    magn:   magnitude (brightness) estimate    
    ra:     right ascension in hours (24h = 360deg)
    dec:    declination in degrees
    elong:  elongation in degrees (angle sun-earth-minor planet)    
    phase:  phase angle in degrees (angle sun-minor planet-earth)        
    AU:     Astronomical Unit (mean distance between earth and sun: 149597870.7 km
    

Orbital elements provided by the MPC (Minor Planet Center).
Calculations by a modified version of AAPlus, a C# implementation of the AA+ project by PJ Naughter from the algorithms presented in the book "Astronomical Algorithms" by Jean Meeus.
NGC2000 dso catalog and star labels from VizieR as provided by the Strasbourg astronomical Data Center.
Tycho2 catalog from the ESO archive.